Location: Mahannah Oil Field
(37.4664°N, 96.6003°W)
Time: 02:10:04
(UTC+00:00)

deb Explorer IX - Pass Details

Date: 26 January 2021
Orbit: 537 x 1102 km, 38.8° (Epoch: 25 February)

Event Time Altitude Azimuth Distance (km) Brightness Sun altitude
Rises 22:14:35 0° 230° (SW) 3,887 ? 14.5°
Reaches altitude 10° 22:17:31 10° 225° (SW) 2,900 ? 14.1°
Maximum altitude 22:24:17 48° 153° (SSE) 1,286 ? 13.0°
Drops below altitude 10° 22:30:22 10° 81° (E) 2,606 ? 12.0°
Sets 22:32:52 0° 76° (ENE) 3,463 ? 11.6°
